CAPE
0 0 2 708 871 600 684 983 996 1251 1139 1199 1276 1297 1135 719 318 186 97 98 250 629 855 862 710 663 586 544 568 527 343 452 518 487 377 415 404 370 488 424 299 294 365
0 0 0 553 815 725 441 726 732 733 1036 1139 994 721 553 486 516 467 202 61 72 226 664 663 598 553 379 112 440 659 386 394 377 246 256 183 258 420 433 328 206 146 191
352 318 25 464 687 594 464 361 474 583 567 931 918 579 442 565 526 470 344 128 60 59 78 247 596 270 26 257 589 559 428 215 197 154 139 291 318 281 234 169 146 195 85
255 694 100 400 439 556 582 459 361 464 572 474 707 750 637 629 696 691 680 503 262 101 133 372 393 473 211 82 553 446 381 236 115 79 117 170 168 270 231 123 117 47 31
138 375 623 513 372 417 508 453 365 416 464 476 559 569 620 677 651 730 906 855 754 533 304 304 480 538 258 28 242 283 352 120 47 86 126 162 114 173 166 113 80 23 2
10 89 449 646 544 441 528 490 538 411 371 356 410 435 514 564 822 910 1011 711 517 387 338 562 460 317 308 94 97 371 213 23 7 45 101 119 102 123 54 59 37 23 17
0 0 49 315 388 593 630 619 656 661 614 488 458 472 407 443 539 669 814 555 356 329 456 469 323 341 263 144 372 365 61 0 2 3 39 70 131 59 28 36 18 7 2
0 0 0 0 54 122 288 516 849 927 812 765 664 569 616 443 476 655 709 679 462 328 345 529 276 316 229 236 458 89 3 0 0 0 5 49 63 23 12 11 7 6 2
0 0 0 0 0 0 0 9 34 101 494 597 604 636 585 542 575 718 894 698 649 357 143 223 372 348 238 178 95 3 0 0 0 0 0 4 1 11 17 26 8 2 9
0 0 0 0 0 0 0 0 0 0 14 121 272 281 304 351 371 547 591 509 490 414 104 79 141 130 164 122 85 0 0 0 0 0 0 0 27 42 42 68 63 42 43
0 0 0 0 0 0 0 0 0 0 0 0 0 27 90 152 237 338 492 552 514 433 263 84 6 14 68 41 55 31 0 0 0 0 0 0 10 44 35 73 75 72 42
0 0 0 0 0 0 0 0 0 0 0 0 0 0 7 25 27 103 232 339 481 503 428 163 108 12 2 2 33 79 19 3 0 0 0 0 40 81 95 72 54 60 44
0 0 0 0 0 0 0 0 0 0 0 0 0 0 0 0 16 50 149 177 200 295 490 388 161 40 1 0 0 24 39 1 10 2 8 4 34 55 62 87 63 50 31
0 0 0 0 0 0 0 0 0 0 0 0 0 0 0 0 0 0 2 61 190 275 411 446 258 92 8 9 21 40 33 28 23 35 36 17 9 58 24 129 92 55 19
0 0 0 0 0 0 0 0 0 0 0 0 0 0 0 2 0 0 0 1 26 122 287 177 70 16 22 26 55 51 36 78 64 23 53 52 25 14 48 90 92 41 18
0 0 0 0 0 0 0 0 0 0 0 0 0 0 0 0 0 1 0 1 2 21 30 0 0 0 1 7 44 95 70 55 91 71 63 71 69 56 26 60 72 17 9
0 0 0 0 0 0 0 0 0 0 0 0 0 0 0 0 0 0 0 3 2 4 7 3 0 0 0 0 0 28 50 17 67 97 79 67 69 74 35 66 62 43 20
0 0 0 0 0 0 0 0 0 0 0 0 0 0 0 0 0 0 0 0 0 1 1 0 6 5 0 0 0 39 59 51 74 56 64 105 78 84 36 13 54 55 38
0 0 0 0 0 0 0 0 0 0 0 0 0 0 0 0 0 0 0 0 0 0 8 13 3 3 4 0 0 8 15 46 75 41 29 41 105 95 102 50 25 72 36
0 0 0 0 0 0 0 0 0 0 0 0 0 0 0 0 0 0 0 0 0 0 1 25 21 4 4 1 0 4 0 0 3 19 43 46 47 66 102 134 54 73 18
0 0 0 0 0 0 0 0 0 0 0 0 0 0 0 0 0 0 0 0 0 0 0 1 5 1 4 5 4 0 0 0 0 0 6 18 36 51 61 121 101 116 31
0 0 0 0 0 0 0 0 0 0 0 0 0 0 0 0 0 0 0 1 0 0 0 2 2 2 4 0 5 1 7 0 0 0 0 4 21 6 31 74 104 89 41
0 0 0 0 0 0 0 0 0 0 0 0 0 0 0 0 0 0 0 1 2 2 0 2 1 3 4 0 1 12 4 0 0 0 0 0 0 17 17 18 52 38 38
0 0 0 0 0 0 0 0 0 0 0 0 0 0 0 0 0 0 0 0 1 1 1 2 2 2 5 5 0 0 0 0 0 0 0 0 0 0 7 12 20 3 0
0 0 0 0 0 0 0 0 0 0 0 0 0 0 0 0 0 0 0 0 0 2 1 1 0 2 6 19 6 0 0 0 0 3 2 0 0 0 0 2 42 4 1
0 0 0 0 0 0 0 0 0 0 0 0 0 0 0 0 0 0 0 0 0 1 1 1 2 2 3 12 10 4 1 1 0 0 3 0 0 0 0 0 0 0 1
CIN
-0 -0 -83 -10 -3 -6 -8 -7 -8 -3 -2 -0 -0 -0 -0 -16 -47 -66 -85 -90 -53 -9 -0 -0 -0 -0 -0 -0 -0 -0 -1 -2 -0 -0 -1 -1 -1 -0 -0 -0 -1 -0 -0
-0 -0 -0 -19 -9 -7 -7 -6 -11 -15 -4 -0 -0 -6 -18 -22 -20 -25 -62 -108 -71 -32 -0 -0 -0 -0 -0 -13 -2 -2 -6 -5 -4 -8 -7 -36 -12 -0 -0 -0 -0 -2 -0
-86 -90 -169 -29 -12 -12 -12 -18 -18 -12 -15 -3 -1 -16 -29 -18 -14 -14 -26 -60 -97 -80 -39 -7 -0 -1 -11 -2 -0 -0 -2 -10 -15 -31 -34 -0 -0 -1 -5 -13 -8 -2 -20
-131 -63 -145 -27 -17 -12 -13 -17 -19 -14 -13 -20 -6 -7 -11 -12 -10 -12 -7 -11 -23 -40 -14 -1 -0 -1 -3 -30 -0 -0 -0 -8 -47 -92 -38 -3 -8 -0 -3 -21 -26 -44 -50
-140 -106 -45 -17 -18 -10 -8 -14 -18 -16 -13 -19 -13 -10 -8 -9 -11 -10 -1 -1 -1 -2 -5 -1 -2 -2 -5 -56 -6 -1 -0 -17 -41 -46 -21 -15 -28 -5 -10 -31 -78 -15 -0
-232 -161 -65 -31 -27 -5 -6 -12 -13 -18 -21 -18 -15 -13 -10 -7 -3 -0 -0 -5 -11 -17 -19 -2 -1 -5 -8 -16 -13 -0 -2 -24 -38 -14 -10 -14 -16 -17 -73 -86 -9 -3 -7
-0 -0 -129 -55 -41 -15 -6 -5 -5 -5 -8 -11 -13 -12 -13 -10 -4 -3 -2 -6 -18 -24 -16 -10 -10 -5 -8 -16 -1 -0 -20 -0 -8 -5 -10 -7 -9 -0 -5 -1 -12 -13 -0
-0 -0 -0 -0 -144 -128 -38 -21 -0 -1 -4 -3 -6 -10 -7 -12 -8 -2 -2 -2 -8 -15 -13 -9 -21 -11 -11 -11 -1 -19 -7 -0 -0 -0 -6 -4 -1 -0 -0 -0 -0 -0 -0
-0 -0 -0 -0 -0 -0 -0 -41 -165 -53 -16 -7 -15 -14 -16 -15 -6 -2 -0 -1 -1 -8 -18 -9 -8 -5 -9 -9 -14 -2 -0 -0 -0 -0 -0 -3 -0 -1 -1 -1 -0 -0 -0
-0 -0 -0 -0 -0 -0 -0 -0 -0 -0 -217 -66 -45 -60 -44 -35 -37 -16 -6 -11 -7 -7 -24 -10 -5 -8 -7 -7 -6 -0 -0 -0 -0 -0 -0 -0 -8 -1 -0 -0 -0 -0 -0
-0 -0 -0 -0 -0 -0 -0 -0 -0 -0 -0 -0 -158 -194 -125 -76 -52 -41 -23 -10 -7 -7 -9 -17 -43 -45 -4 -9 -6 -20 -0 -0 -0 -0 -0 -0 -19 -3 -3 -8 -0 -0 -0
-0 -0 -0 -0 -0 -0 -0 -0 -0 -0 -0 -0 -0 -0 -117 -154 -183 -108 -61 -39 -17 -6 -5 -9 -16 -26 -41 -7 -7 -6 -32 -20 -0 -0 -0 -0 -10 -2 -0 -7 -5 -0 -0
-0 -0 -0 -0 -0 -0 -0 -0 -0 -0 -0 -0 -0 -0 -0 -16 -174 -128 -56 -62 -70 -39 -3 -4 -6 -23 -25 -0 -19 -5 -18 -14 -45 -10 -34 -31 -14 -5 -0 -0 -4 -8 -15
-0 -0 -0 -0 -0 -0 -0 -0 -0 -0 -0 -0 -0 -0 -0 -0 -0 -0 -35 -94 -51 -30 -13 -1 -9 -4 -33 -32 -20 -34 -25 -59 -45 -48 -81 -43 -25 -0 -1 -0 -0 -0 -28
-0 -0 -0 -0 -0 -0 -0 -0 -0 -0 -0 -0 -0 -0 -0 -0 -0 -0 -0 -0 -150 -44 -4 -7 -29 -26 -17 -18 -18 -15 -26 -27 -39 -42 -50 -42 -27 -10 -5 -2 -0 -1 -20
-0 -0 -0 -0 -0 -0 -0 -0 -0 -0 -0 -0 -0 -0 -0 -0 -0 -0 -0 -0 -0 -88 -41 -0 -0 -0 -0 -8 -18 -37 -44 -54 -34 -36 -42 -40 -43 -17 -16 -5 -0 -9 -33
-0 -0 -0 -0 -0 -0 -0 -0 -0 -0 -0 -0 -0 -0 -0 -0 -0 -0 -0 -0 -0 -1 -7 -0 -0 -0 -0 -0 -1 -101 -90 -68 -56 -76 -45 -38 -37 -19 -31 -23 -0 -0 -10
-0 -0 -0 -0 -0 -0 -0 -0 -0 -0 -0 -0 -0 -0 -0 -0 -0 -0 -0 -0 -0 -1 -28 -4 -25 -66 -0 -0 -0 -166 -131 -67 -49 -43 -56 -45 -48 -35 -17 -22 -8 -0 -3
-0 -0 -0 -0 -0 -0 -0 -0 -0 -0 -0 -0 -0 -0 -0 -0 -0 -0 -0 -0 -0 -0 -1 -13 -7 -16 -8 -0 -0 -14 -116 -81 -44 -37 -58 -53 -42 -40 -23 -14 -18 -2 -2
-0 -0 -0 -0 -0 -0 -0 -0 -0 -0 -0 -0 -0 -0 -0 -0 -0 -0 -0 -0 -0 -0 -0 -0 -3 -6 -28 -16 -0 -18 -0 -5 -42 -32 -37 -49 -51 -62 -34 -18 -13 -6 -16
-0 -0 -0 -0 -0 -0 -0 -0 -0 -0 -0 -0 -0 -0 -0 -0 -0 -0 -0 -0 -0 -0 -0 -0 -1 -0 -13 -3 -14 -0 -0 -0 -0 -0 -81 -49 -36 -54 -51 -33 -11 -8 -12
-0 -0 -0 -0 -0 -0 -0 -0 -0 -0 -0 -0 -0 -0 -0 -0 -0 -0 -0 -0 -0 -0 -0 -0 -3 -0 -3 -3 -2 -37 -3 -0 -0 -0 -0 -45 -52 -36 -41 -23 -21 -16 -20
-0 -0 -0 -0 -0 -0 -0 -0 -0 -0 -0 -0 -0 -0 -0 -0 -0 -0 -0 -0 -0 -0 -0 -0 -0 -9 -9 -5 -5 -0 -13 -0 -0 -0 -0 -0 -1 -36 -37 -16 -5 -26 -15
-0 -0 -0 -0 -0 -0 -0 -0 -0 -0 -0 -0 -0 -0 -0 -0 -0 -0 -0 -0 -0 -0 -0 -0 -0 -2 -13 -10 -1 -0 -5 -1 -1 -0 -0 -0 -0 -0 -23 -14 -19 -18 -7
-0 -0 -0 -0 -0 -0 -0 -0 -0 -0 -0 -0 -0 -0 -0 -0 -0 -0 -0 -0 -0 -0 -0 -0 -0 -0 -2 -0 -10 -0 -0 -0 -0 -3 -2 -0 -0 -0 -0 -22 -10 -19 -0
-0 -0 -0 -0 -0 -0 -0 -0 -0 -0 -0 -0 -0 -0 -0 -0 -0 -0 -0 -0 -0 -0 -0 -0 -0 -0 -19 -0 -1 -7 -10 -3 -1 -0 -5 -1 -0 -0 -0 -0 -0 -0 -0
Wind_Speed
17 22 19 16 17 13 12 12 12 11 11 11 10 10 10 10 10 11 12 13 13 12 12 12 13 11 10 9 8 9 10 11 11 12 13 14 13 12 11 11 12 13 13
23 20 18 16 16 15 12 12 12 11 10 10 10 10 10 10 11 12 13 13 13 13 12 12 12 11 9 8 8 9 9 10 11 11 12 13 13 13 13 13 12 14 16
23 19 16 14 15 15 13 13 13 12 10 9 9 9 9 10 10 12 13 13 13 13 12 12 11 10 8 7 8 8 9 10 11 10 11 11 12 13 14 13 13 13 13
24 21 15 15 15 16 15 15 14 12 12 10 9 9 8 9 10 11 13 13 14 13 13 12 10 9 8 8 8 9 10 11 11 11 10 10 11 11 11 12 12 11 11
22 21 16 16 17 17 17 16 15 14 13 13 12 11 10 9 10 11 12 14 14 14 14 15 14 8 8 8 8 8 9 9 10 10 10 9 9 10 10 11 12 11 10
21 20 18 17 19 18 18 17 17 17 16 16 15 15 14 13 12 13 14 15 15 16 16 16 14 8 6 6 7 8 8 9 9 9 8 7 8 8 8 9 10 10 10
21 21 19 18 19 19 19 17 18 18 18 18 19 18 18 17 17 17 15 16 16 17 15 13 9 7 5 4 5 6 7 7 7 8 8 7 6 6 7 7 8 9 9
21 21 20 20 19 19 19 17 19 18 19 20 21 21 20 20 21 21 21 19 16 16 15 10 8 5 4 3 2 3 4 6 7 8 9 8 7 6 8 8 8 9 9
21 21 21 20 20 20 20 21 20 21 19 20 21 22 23 23 23 23 23 22 19 17 17 14 11 9 7 5 4 3 4 6 8 10 11 12 10 7 7 6 7 8 8
22 22 22 22 21 20 20 22 21 21 21 22 22 23 24 24 24 25 24 23 21 19 18 16 16 15 13 12 9 8 8 8 11 12 14 14 12 10 4 3 5 6 6
22 23 23 22 22 22 22 22 22 23 22 22 22 24 23 23 26 26 26 26 25 23 18 15 15 17 18 17 11 9 9 13 15 16 16 15 15 10 2 3 5 5 4
22 22 23 23 23 22 22 23 23 22 22 23 24 25 24 25 26 27 27 27 28 28 20 17 14 14 16 18 22 15 14 16 18 18 16 13 9 5 4 3 4 3 2
21 22 24 24 24 23 23 23 23 23 23 24 25 25 25 25 26 26 25 25 26 27 25 17 16 17 16 18 13 12 18 16 20 19 17 12 11 9 7 5 2 1 3
20 22 23 24 24 24 23 23 23 23 23 24 25 26 25 25 25 25 26 29 28 32 29 23 19 18 17 18 18 12 17 18 23 23 19 14 14 11 9 6 4 2 2
21 22 23 24 24 24 24 24 24 23 23 24 24 25 25 25 26 25 26 27 28 24 23 19 23 21 17 16 16 17 18 19 19 21 23 17 19 16 13 9 6 4 4
21 23 23 24 24 24 24 25 24 24 24 24 24 25 25 25 25 26 26 26 26 24 17 13 13 20 14 14 19 21 18 19 20 20 22 22 20 20 15 10 9 7 6
21 23 25 25 25 25 25 24 25 25 24 25 25 26 26 26 26 26 27 27 27 25 19 17 19 21 20 27 23 31 25 22 23 18 22 23 19 19 19 13 13 11 8
21 23 24 26 26 26 26 25 25 25 25 26 27 27 28 28 28 28 28 27 27 27 24 25 25 22 20 18 20 18 13 15 15 24 20 24 21 20 18 16 13 13 10
21 22 24 26 28 28 27 26 26 26 26 27 28 29 30 29 29 29 29 29 28 27 26 25 25 23 21 22 18 17 16 17 17 16 21 24 23 22 22 19 15 13 11
22 24 24 26 27 28 28 27 27 27 27 29 30 30 31 31 31 31 30 30 29 28 27 26 24 23 23 20 22 23 22 20 20 19 16 15 15 14 21 22 18 16 15
23 25 26 26 28 29 29 30 29 30 30 30 31 32 32 33 33 32 32 32 31 30 29 29 28 28 25 21 22 24 23 21 20 20 22 20 18 19 21 13 14 14 15
24 25 26 27 28 29 29 30 28 30 30 30 33 33 34 34 34 33 33 33 32 32 30 29 28 27 25 21 22 22 25 24 24 24 23 24 23 20 19 17 16 16 16
25 26 27 28 29 30 32 31 31 29 32 33 36 35 36 35 35 34 33 33 33 32 31 31 30 29 27 23 21 22 24 26 24 23 24 27 31 26 22 25 21 17 18
24 26 27 28 29 31 33 34 34 34 36 36 38 37 37 36 35 35 34 33 33 33 33 31 30 29 28 26 24 22 22 22 26 28 25 25 28 28 27 28 27 22 20
27 28 30 31 31 33 34 35 36 38 37 38 39 40 38 37 36 35 34 34 34 33 33 32 31 30 28 26 24 24 25 26 27 31 36 33 29 27 32 33 29 24 23
29 30 32 33 34 35 36 37 39 41 42 43 43 42 40 39 37 36 35 35 34 33 32 32 31 31 30 28 26 24 23 25 27 29 32 34 33 30 29 32 31 30 25
Wind_Direction
354 327 335 346 344 1 358 5 15 19 20 20 15 8 3 357 352 359 1 7 11 9 14 10 356 352 356 356 351 26 27 25 33 37 44 50 44 41 34 32 34 37 39
325 333 338 343 344 349 8 354 352 0 5 10 10 7 1 355 349 346 352 4 11 12 17 11 5 357 3 351 7 21 17 28 33 37 46 48 50 49 50 45 45 50 52
323 331 337 343 339 341 348 344 343 344 350 355 4 358 354 353 349 344 339 342 353 3 18 16 14 10 1 10 31 29 30 38 39 37 36 43 54 61 64 52 55 54 48
326 323 331 335 335 331 332 332 334 337 335 337 342 347 353 351 345 341 337 334 338 341 354 354 356 350 18 38 39 44 50 48 48 48 36 33 55 54 56 60 48 41 37
333 332 332 324 324 321 320 323 325 326 328 325 324 327 332 339 340 336 334 327 325 327 324 315 306 335 16 54 66 57 47 44 42 38 39 38 32 49 51 48 44 31 16
339 336 331 327 320 318 316 316 316 316 316 315 315 313 313 316 325 325 324 324 317 314 313 309 307 318 9 36 73 65 55 45 34 21 16 25 40 41 39 35 30 24 13
341 335 333 329 324 320 315 315 312 310 311 308 305 306 306 307 308 310 319 317 315 309 312 314 323 319 343 23 61 66 59 41 14 2 3 2 358 10 5 9 7 4 1
352 347 337 332 328 321 321 320 313 307 307 305 303 303 303 301 301 300 300 307 312 311 311 314 313 325 323 341 19 42 37 8 352 344 335 336 330 336 326 333 342 342 342
357 352 346 343 338 328 323 318 319 305 312 309 304 302 299 300 301 300 299 300 302 304 302 300 299 298 301 301 302 306 322 328 322 321 317 311 311 326 320 329 341 343 348
354 350 343 339 337 335 335 328 328 329 319 315 306 302 300 300 299 296 295 296 298 300 299 297 290 288 286 285 286 282 288 299 301 304 304 301 302 306 347 26 22 24 18
351 346 342 338 334 331 330 329 328 325 321 319 314 308 306 304 298 295 294 291 292 293 295 294 290 287 281 281 285 277 276 286 290 294 299 294 294 293 336 23 358 10 40
352 347 344 341 338 333 330 328 327 326 324 321 316 309 309 305 300 297 292 291 289 287 292 290 286 287 284 280 281 274 274 280 282 284 297 293 302 302 322 342 4 11 22
349 348 342 340 338 337 333 329 328 325 323 321 319 316 311 309 305 303 299 295 295 293 289 289 285 282 278 274 284 283 273 282 279 281 288 286 289 287 293 299 321 340 331
351 348 346 341 339 337 336 335 332 329 326 322 321 319 314 311 309 310 303 298 297 295 287 287 281 278 273 274 275 280 282 282 272 273 284 279 285 285 282 272 264 277 331
348 346 343 342 339 336 334 333 334 333 331 328 326 323 320 314 312 312 309 306 305 301 294 294 281 277 269 275 282 283 281 279 278 275 273 276 278 281 277 262 235 257 286
347 343 341 340 338 337 335 332 331 331 331 331 329 326 323 320 316 313 313 312 306 305 304 304 300 285 289 290 289 286 281 281 281 279 275 274 274 274 279 252 241 252 267
348 345 340 337 337 334 332 333 330 330 330 329 328 327 325 322 318 316 315 312 308 303 299 290 293 296 293 284 295 282 283 279 278 276 273 272 276 272 272 264 250 251 257
349 347 343 338 335 334 332 330 330 330 329 327 326 325 323 321 319 315 314 314 310 303 297 294 295 295 289 292 297 288 293 290 280 276 280 272 276 276 268 263 252 248 250
351 348 344 339 334 332 331 329 328 327 327 327 326 323 320 318 316 314 311 310 310 306 300 297 294 294 293 293 291 291 292 293 287 285 278 278 275 273 269 262 257 241 238
351 349 344 339 335 333 331 328 328 325 324 325 323 322 321 316 313 311 308 306 305 303 300 298 296 293 293 292 291 289 290 289 286 283 279 281 278 273 271 264 258 247 237
350 344 342 340 339 337 335 330 328 324 322 321 321 319 320 318 312 309 306 303 301 298 297 297 293 292 290 293 291 291 291 287 282 281 279 279 274 271 269 250 245 239 237
349 346 344 344 343 341 340 337 333 328 327 324 320 317 316 315 315 311 306 303 301 298 296 294 294 291 292 290 289 294 290 285 282 279 278 276 273 272 265 258 244 232 238
347 342 341 340 341 340 339 337 335 331 327 322 321 319 317 314 310 310 308 303 300 299 296 293 291 289 288 289 287 286 288 283 286 287 279 278 275 271 267 260 254 236 239
348 340 339 339 340 340 339 335 332 328 322 322 317 316 316 315 312 309 306 306 301 299 294 293 292 289 288 287 286 282 283 286 286 281 281 287 280 277 270 264 256 246 242
341 339 334 332 332 333 334 334 329 323 323 321 319 315 315 315 313 310 308 306 304 299 296 293 291 289 287 286 285 284 283 283 281 278 277 277 284 279 271 272 261 247 244
336 334 331 328 328 329 329 329 327 322 318 316 314 312 312 311 310 309 308 308 306 304 299 295 292 289 288 286 285 283 281 283 280 277 276 276 276 279 277 271 264 259 254